March 30, 2015
Temp
 
84.0 °F
 
Dew Pt.
 
54.9 °F
 
Humidity
 
37%
 
Pressure
 
1013.4 hPa 
  falling slowly
Wind
 
6.0 mph 
    WSW
Rain
 
0.00 in 
  0.00 in/hr
UV index
 
1.5  
 
Solar rad.
 
605 W/m²
 
Tonight

Patchy Fog
Patchy
Fog
Tuesday

Patchy Fog
Patchy
Fog
Lo 57 °F Hi 79 °F
Statistics - 3/30/2015
Max Temp 86.6 °F  3:20 pm
Min Temp 52.9 °F  7:20 am
Max Dew Pt 58.1 °F  11:45 am
Min Dew Pt 43.1 °F  7:15 am
Max Pressure 1016.5 hPa  10:40 am
Min Pressure 1013.4 hPa  3:55 pm
Max Wind 12 mph  1:55 pm
Max UV 5.2   1:05 pm
Max Solar 889 W/m²  1:05 pm
Max Rainfall Rate —   —
Total Precipitation —   
Current Temp 84.1 °F  3:55 pm
Temp 24hr ago 87.0 °F  3:55 pm
Difference -2.9 °F  
Temp Rate -3.3 °F/hr  
Pressure Rate -0.1 hPa/hr  
time temp dew pt pressure uv solar wind wind speed rainfall rate
00:00 60.0 °F 50.2 °F 1016.2 hPa  WSW 1 mph   
00:05 59.8 °F 50.4 °F 1016.1 hPa  WSW 1 mph   
00:10 59.5 °F 50.5 °F 1016.2 hPa  WNW 1 mph   
00:15 59.4 °F 50.4 °F 1016.2 hPa  Calm    
00:20 59.3 °F 49.9 °F 1016.1 hPa  ENE 1 mph   
00:25 59.2 °F 49.8 °F 1016.1 hPa  Calm    
00:30 59.2 °F 49.4 °F 1016.1 hPa  Calm    
00:35 59.3 °F 49.5 °F 1016.2 hPa  ENE 1 mph   
00:40 59.2 °F 49.4 °F 1016.2 hPa  ENE 1 mph   
00:45 59.2 °F 49.4 °F 1016.1 hPa  Calm    
00:50 59.1 °F 49.3 °F 1016.1 hPa  Calm    
00:55 59.0 °F 49.2 °F 1016.1 hPa  Calm    
01:00 59.0 °F 49.2 °F 1016.1 hPa  Calm    
01:05 59.0 °F 49.2 °F 1016.0 hPa  Calm    
01:10 59.0 °F 48.8 °F 1016.0 hPa  ENE 1 mph   
01:15 58.8 °F 48.7 °F 1016.0 hPa  ENE 1 mph   
01:20 58.7 °F 48.6 °F 1016.0 hPa  ENE 1 mph   
01:25 58.5 °F 48.4 °F 1015.9 hPa  Calm    
01:30 58.5 °F 48.4 °F 1015.8 hPa  Calm    
01:35 58.4 °F 48.3 °F 1015.8 hPa  ENE 1 mph   
01:40 58.2 °F 48.1 °F 1015.7 hPa  Calm    
01:45 58.2 °F 48.1 °F 1015.6 hPa  ENE 1 mph   
01:50 58.1 °F 48.0 °F 1015.6 hPa  Calm    
01:55 58.0 °F 48.3 °F 1015.6 hPa  Calm    
02:00 57.9 °F 47.8 °F 1015.5 hPa  Calm    
02:05 57.8 °F 47.7 °F 1015.4 hPa  Calm    
02:10 57.8 °F 47.7 °F 1015.4 hPa  Calm    
02:15 57.7 °F 47.6 °F 1015.3 hPa  Calm    
02:20 57.6 °F 47.5 °F 1015.3 hPa  Calm    
02:25 57.5 °F 47.4 °F 1015.3 hPa  Calm    
02:30 57.5 °F 47.4 °F 1015.3 hPa  SE 2 mph   
02:35 57.3 °F 46.8 °F 1015.2 hPa  SE 2 mph   
02:40 57.3 °F 46.8 °F 1015.2 hPa  ESE 3 mph   
02:45 57.2 °F 46.7 °F 1015.2 hPa  ESE 2 mph   
02:50 57.1 °F 46.6 °F 1015.2 hPa  ESE 3 mph   
02:55 57.0 °F 46.5 °F 1015.1 hPa  ESE 3 mph   
03:00 56.9 °F 46.4 °F 1015.0 hPa  ESE 1 mph   
03:05 56.8 °F 46.4 °F 1015.0 hPa  NE 1 mph   
03:10 56.7 °F 46.3 °F 1014.9 hPa  WSW 1 mph   
03:15 56.7 °F 46.3 °F 1014.9 hPa  SW 1 mph   
03:20 56.6 °F 46.2 °F 1014.9 hPa  SW 1 mph   
03:25 56.5 °F 45.7 °F 1014.9 hPa  W 2 mph   
03:30 56.4 °F 45.6 °F 1014.9 hPa  W 1 mph   
03:35 56.3 °F 45.5 °F 1014.9 hPa  WSW 2 mph   
03:40 56.2 °F 45.4 °F 1014.9 hPa  W 1 mph   
03:45 56.2 °F 45.4 °F 1014.8 hPa  WSW 1 mph   
03:50 56.0 °F 45.2 °F 1014.8 hPa  WSW 1 mph   
03:55 56.0 °F 44.8 °F 1014.8 hPa  W 1 mph   
04:00 55.9 °F 44.7 °F 1014.8 hPa  W 1 mph   
04:05 55.8 °F 44.6 °F 1014.8 hPa  W 1 mph   
04:10 55.7 °F 44.5 °F 1014.8 hPa  Calm    
04:15 55.7 °F 44.5 °F 1014.8 hPa  W 1 mph   
04:20 55.6 °F 44.4 °F 1014.9 hPa  W 1 mph   
04:25 55.5 °F 44.3 °F 1014.9 hPa  NW 1 mph   
04:30 55.4 °F 44.2 °F 1014.9 hPa  WSW 1 mph   
04:35 55.4 °F 44.2 °F 1014.9 hPa  Calm    
04:40 55.3 °F 44.1 °F 1014.9 hPa  W 1 mph   
04:45 55.2 °F 44.0 °F 1014.9 hPa  W 1 mph   
04:50 55.1 °F 43.9 °F 1014.8 hPa  W 1 mph   
04:55 55.1 °F 43.9 °F 1014.8 hPa  WSW 1 mph   
05:00 55.0 °F 43.9 °F 1014.8 hPa  W 1 mph   
05:05 55.0 °F 43.9 °F 1014.9 hPa  NNW 1 mph   
05:10 54.9 °F 43.8 °F 1015.0 hPa  NNW 1 mph   
05:15 54.8 °F 43.7 °F 1015.0 hPa  Calm    
05:20 54.8 °F 44.1 °F 1015.0 hPa  Calm    
05:25 54.7 °F 44.0 °F 1015.0 hPa  Calm    
05:30 54.6 °F 43.9 °F 1015.0 hPa  Calm    
05:35 54.6 °F 44.3 °F 1015.0 hPa  Calm    
05:40 54.5 °F 43.8 °F 1014.9 hPa  Calm    
05:45 54.4 °F 44.1 °F 1015.0 hPa  Calm    
05:50 54.3 °F 44.0 °F 1015.0 hPa  Calm    
05:55 54.2 °F 43.9 °F 1015.1 hPa  W 1 mph   
06:00 54.1 °F 43.8 °F 1015.0 hPa  W 1 mph   
06:05 54.0 °F 43.7 °F 1015.1 hPa  Calm    
06:10 53.9 °F 43.6 °F 1015.1 hPa  W 1 mph   
06:15 53.8 °F 43.5 °F 1015.1 hPa  W 1 mph   
06:20 53.8 °F 43.5 °F 1015.2 hPa  W 1 mph   
06:25 53.7 °F 43.4 °F 1015.2 hPa  W 1 mph   
06:30 53.6 °F 43.7 °F 1015.3 hPa  Calm    
06:35 53.5 °F 43.2 °F 1015.3 hPa  Calm    
06:40 53.4 °F 43.1 °F 1015.4 hPa  Calm    
06:45 53.3 °F 43.4 °F 1015.4 hPa  Calm    
06:50 53.3 °F 43.4 °F 1015.3 hPa 3 W/m²  Calm    
06:55 53.2 °F 43.3 °F 1015.4 hPa 7 W/m²  Calm    
07:00 53.1 °F 43.2 °F 1015.5 hPa 10 W/m²  Calm    
07:05 53.0 °F 43.1 °F 1015.6 hPa 12 W/m²  Calm    
07:10 53.0 °F 43.1 °F 1015.6 hPa 15 W/m²  Calm    
07:15 53.0 °F 43.1 °F 1015.7 hPa 18 W/m²  Calm    
07:20 53.0 °F 43.5 °F 1015.8 hPa 22 W/m²  Calm    
07:25 53.1 °F 43.9 °F 1015.8 hPa 30 W/m²  W 1 mph   
07:30 53.2 °F 44.0 °F 1015.9 hPa 86 W/m²  W 1 mph   
07:35 53.6 °F 45.2 °F 1015.9 hPa 110 W/m²  Calm    
07:40 54.0 °F 45.9 °F 1015.9 hPa 129 W/m²  Calm    
07:45 54.4 °F 46.6 °F 1016.0 hPa 144 W/m²  Calm    
07:50 54.9 °F 47.1 °F 1016.0 hPa 160 W/m²  W 1 mph   
07:55 55.6 °F 48.2 °F 1016.0 hPa 177 W/m²  Calm    
08:00 56.6 °F 49.5 °F 1016.1 hPa 196 W/m²  Calm    
08:05 57.6 °F 50.4 °F 1016.0 hPa 213 W/m²  Calm    
08:10 58.5 °F 51.3 °F 1015.9 hPa 231 W/m²  ESE 2 mph   
08:15 59.0 °F 51.8 °F 1016.0 hPa 249 W/m²  Calm    
08:20 59.6 °F 52.4 °F 1016.0 hPa 267 W/m²  S 2 mph   
08:25 60.1 °F 52.5 °F 1016.1 hPa 285 W/m²  S 2 mph   
08:30 60.4 °F 52.8 °F 1016.1 hPa 304 W/m²  WSW 2 mph   
08:35 60.8 °F 53.2 °F 1016.1 hPa 324 W/m²  WSW 2 mph   
08:40 61.3 °F 53.7 °F 1016.2 hPa 340 W/m²  SW 3 mph   
08:45 61.9 °F 54.2 °F 1016.2 hPa 356 W/m²  WSW 3 mph   
08:50 62.3 °F 54.6 °F 1016.3 hPa 372 W/m²  SW 3 mph   
08:55 62.7 °F 55.0 °F 1016.3 hPa 387 W/m²  WSW 3 mph   
09:00 63.1 °F 55.4 °F 1016.3 hPa 404 W/m²  WSW 3 mph   
09:05 63.4 °F 55.3 °F 1016.3 hPa 422 W/m²  SW 4 mph   
09:10 63.8 °F 55.7 °F 1016.4 hPa 440 W/m²  S 3 mph   
09:15 63.9 °F 55.4 °F 1016.3 hPa 456 W/m²  SSE 3 mph   
09:20 64.0 °F 55.5 °F 1016.3 hPa 0.5 474 W/m²  SSE 4 mph   
09:25 64.1 °F 55.6 °F 1016.3 hPa 0.6 493 W/m²  SSE 3 mph   
09:30 64.2 °F 55.7 °F 1016.3 hPa 0.7 508 W/m²  SW 2 mph   
09:35 63.4 °F 55.3 °F 1016.4 hPa 0.9 525 W/m²  S 2 mph   
09:40 63.7 °F 55.6 °F 1016.4 hPa 1.0 541 W/m²  WSW 2 mph   
09:45 64.4 °F 55.9 °F 1016.4 hPa 1.1 557 W/m²  WSW 4 mph   
09:50 64.9 °F 56.0 °F 1016.5 hPa 1.3 570 W/m²  SW 5 mph   
09:55 65.3 °F 56.0 °F 1016.4 hPa 1.4 584 W/m²  SSE 4 mph   
10:00 65.1 °F 55.8 °F 1016.4 hPa 1.6 604 W/m²  WSW 4 mph   
10:05 65.9 °F 56.6 °F 1016.4 hPa 1.7 618 W/m²  WSW 5 mph   
10:10 66.5 °F 56.4 °F 1016.5 hPa 1.9 631 W/m²  WSW 4 mph   
10:15 67.1 °F 56.6 °F 1016.5 hPa 2.0 647 W/m²  WSW 4 mph   
10:20 67.7 °F 56.3 °F 1016.5 hPa 2.1 661 W/m²  SW 5 mph   
10:25 68.4 °F 56.6 °F 1016.5 hPa 2.3 675 W/m²  WSW 4 mph   
10:30 68.8 °F 57.4 °F 1016.4 hPa 2.5 689 W/m²  SE 4 mph   
10:35 69.0 °F 56.7 °F 1016.4 hPa 2.6 697 W/m²  SW 5 mph   
10:40 69.4 °F 56.7 °F 1016.4 hPa 2.7 708 W/m²  SW 4 mph   
10:45 70.0 °F 56.8 °F 1016.4 hPa 2.8 715 W/m²  SW 5 mph   
10:50 70.4 °F 56.7 °F 1016.4 hPa 3.0 734 W/m²  WSW 6 mph   
10:55 71.3 °F 57.1 °F 1016.3 hPa 3.1 744 W/m²  WSW 6 mph   
11:00 71.8 °F 56.7 °F 1016.3 hPa 3.3 759 W/m²  SSW 6 mph   
11:05 71.8 °F 55.2 °F 1016.3 hPa 3.5 770 W/m²  WSW 5 mph   
11:10 72.3 °F 55.7 °F 1016.3 hPa 3.6 778 W/m²  WSW 5 mph   
11:15 73.0 °F 55.9 °F 1016.2 hPa 3.7 787 W/m²  W 5 mph   
11:20 72.9 °F 56.8 °F 1016.2 hPa 3.8 796 W/m²  WSW 6 mph   
11:25 73.2 °F 56.0 °F 1016.2 hPa 4.0 805 W/m²  S 5 mph   
11:30 74.0 °F 56.8 °F 1016.2 hPa 4.1 815 W/m²  WSW 6 mph   
11:35 74.2 °F 57.5 °F 1016.2 hPa 4.2 823 W/m²  WSW 5 mph   
11:40 74.9 °F 57.1 °F 1016.1 hPa 4.3 832 W/m²  WSW 6 mph   
11:45 76.0 °F 58.1 °F 1016.1 hPa 4.4 838 W/m²  WSW 8 mph   
11:50 76.1 °F 57.7 °F 1016.0 hPa 4.5 843 W/m²  WSW 8 mph   
11:55 76.7 °F 57.2 °F 1016.0 hPa 4.6 851 W/m²  WSW 6 mph   
12:00 77.4 °F 57.3 °F 1015.9 hPa 4.7 857 W/m²  W 7 mph   
12:05 77.6 °F 57.5 °F 1015.9 hPa 4.8 862 W/m²  WNW 9 mph   
12:10 77.8 °F 57.6 °F 1015.8 hPa 4.8 865 W/m²  WNW 9 mph   
12:15 78.4 °F 57.6 °F 1015.8 hPa 4.9 867 W/m²  SSW 5 mph   
12:20 78.5 °F 57.2 °F 1015.8 hPa 4.9 869 W/m²  WSW 9 mph   
12:25 78.7 °F 57.3 °F 1015.8 hPa 5.0 873 W/m²  SW 9 mph   
12:30 78.7 °F 57.3 °F 1015.7 hPa 5.0 874 W/m²  NW 7 mph   
12:35 78.7 °F 56.2 °F 1015.7 hPa 5.1 877 W/m²  SW 8 mph   
12:40 79.8 °F 57.2 °F 1015.6 hPa 5.1 876 W/m²  SW 9 mph   
12:45 80.7 °F 56.7 °F 1015.5 hPa 5.1 879 W/m²  SW 9 mph   
12:50 80.7 °F 56.1 °F 1015.5 hPa 5.1 881 W/m²  SW 7 mph   
12:55 80.8 °F 56.2 °F 1015.5 hPa 5.1 881 W/m²  SW 7 mph   
13:00 81.2 °F 56.5 °F 1015.5 hPa 5.2 885 W/m²  WSW 9 mph   
13:05 80.9 °F 56.3 °F 1015.5 hPa 5.1 883 W/m²  SW 8 mph   
13:10 81.6 °F 57.5 °F 1015.3 hPa 5.1 880 W/m²  SW 5 mph   
13:15 82.5 °F 57.1 °F 1015.3 hPa 5.0 878 W/m²  SW 7 mph   
13:20 82.4 °F 57.0 °F 1015.3 hPa 5.0 878 W/m²  SW 9 mph   
13:25 82.3 °F 56.9 °F 1015.2 hPa 5.0 880 W/m²  SW 7 mph   
13:30 82.5 °F 56.4 °F 1015.1 hPa 4.9 874 W/m²  S 9 mph   
13:35 82.6 °F 57.2 °F 1015.0 hPa 4.9 873 W/m²  SW 9 mph   
13:40 83.2 °F 56.3 °F 1015.0 hPa 4.8 869 W/m²  WSW 10 mph   
13:45 83.6 °F 57.4 °F 1014.9 hPa 4.7 861 W/m²  SW 9 mph   
13:50 84.7 °F 56.2 °F 1014.9 hPa 4.7 865 W/m²  SW 8 mph   
13:55 84.0 °F 56.3 °F 1014.7 hPa 4.6 853 W/m²  WSW 12 mph   
14:00 83.6 °F 56.7 °F 1014.7 hPa 4.5 845 W/m²  SW 9 mph   
14:05 84.2 °F 55.8 °F 1014.6 hPa 4.3 838 W/m²  WSW 9 mph   
14:10 84.5 °F 56.1 °F 1014.5 hPa 4.3 832 W/m²  W 5 mph   
14:15 84.8 °F 55.6 °F 1014.4 hPa 4.1 820 W/m²  SW 7 mph   
14:20 84.8 °F 55.6 °F 1014.3 hPa 4.0 818 W/m²  SW 9 mph   
14:25 85.4 °F 56.1 °F 1014.3 hPa 4.0 811 W/m²  S 8 mph   
14:30 85.6 °F 55.6 °F 1014.2 hPa 3.8 802 W/m²  WSW 9 mph   
14:35 85.3 °F 56.0 °F 1014.1 hPa 3.7 797 W/m²  SW 9 mph   
14:40 85.6 °F 56.3 °F 1014.1 hPa 3.6 786 W/m²  W 9 mph   
14:45 85.8 °F 56.5 °F 1014.0 hPa 3.4 775 W/m²  SSW 9 mph   
14:50 85.9 °F 55.8 °F 1014.0 hPa 3.3 765 W/m²  SW 8 mph   
14:55 85.8 °F 56.5 °F 1014.0 hPa 3.1 755 W/m²  SW 9 mph   
15:00 86.0 °F 55.9 °F 1013.9 hPa 3.0 742 W/m²  SW 11 mph   
15:05 85.7 °F 56.4 °F 1013.8 hPa 2.9 732 W/m²  S 8 mph   
15:10 85.7 °F 56.4 °F 1013.7 hPa 2.7 723 W/m²  SW 7 mph   
15:15 86.0 °F 57.4 °F 1013.6 hPa 2.6 709 W/m²  SW 6 mph   
15:20 86.1 °F 57.5 °F 1013.6 hPa 2.4 694 W/m²  SW 9 mph   
15:25 85.8 °F 57.9 °F 1013.6 hPa 2.3 685 W/m²  WSW 6 mph   
15:30 85.1 °F 58.0 °F 1013.5 hPa 2.2 673 W/m²  SW 9 mph   
15:35 85.7 °F 57.1 °F 1013.5 hPa 2.1 660 W/m²  SW 9 mph   
15:40 85.2 °F 56.7 °F 1013.5 hPa 1.9 651 W/m²  SW 10 mph   
15:45 84.7 °F 57.0 °F 1013.5 hPa 1.8 636 W/m²  SSW 5 mph   
15:50 84.6 °F 55.4 °F 1013.6 hPa 1.7 624 W/m²  SW 9 mph   
15:55 84.1 °F 55.0 °F 1013.5 hPa 1.6 611 W/m²  SW 10 mph